Home > Weather > Napa > Past weeks

Flag for USA Past Weather in Napa, California, USA — Yesterday and Last 2 Weeks

Now
60 °F

Scattered clouds.


Feels Like: 60 °F
Forecast: 54 / 81 °F
Wind: 6 mph from North

Location: Napa County Airport

Current Time: Jun 30, 2016 at 10:41:12 AM

Latest Report: Jun 30, 2016 at 9:54 AM


Visibility: 10 mi

Pressure: 29.88 "Hg

Humidity: 78%

Dew Point: 53 °F

Location of NapaLocation

Past Weather in Napa — Graph

°F

Napa Temperature Yesterday

Maximum temperature yesterday: 70 °F (at 2:54 PM)
Minimum temperature yesterday: 52 °F (at 3:54 AM)
Average temperature yesterday: 61 °F

High & Low Weather Summary for the Past Weeks

 TemperatureHumidityPressure
High88 °F (Jun 19, 2:54 PM)97% (Jun 21, 4:54 AM)30.16 "Hg (Jun 21, 4:54 AM)
Low48 °F (Jun 19, 3:54 AM)13% (Jun 20, 5:54 PM)29.85 "Hg (Jun 25, 6:54 PM)
Average66 °F65%29.97 "Hg
* Reported Jun 15 8:54 AM — Jun 30 8:54 AM, Napa, Weather by CustomWeather, © 2016

Note: Actual official high and low records may vary slightly from our data, if they occured in-between our weather recording intervals... More about our weather records

Advertising

Napa Weather History for the Previous 24 Hours

Scroll right to see more
 ConditionsComfort  
Time TempWeatherWind HumidityBarometerVisibility
8:54 AM
Thu, Jun 30
58 °FLow clouds.7 mph81%29.89 "Hg9 mi
7:54 AM56 °FLow clouds.8 mph87%29.88 "Hg8 mi
6:54 AM55 °FLow clouds.5 mph90%29.87 "Hg7 mi
5:54 AM55 °FLow clouds.8 mph90%29.86 "Hg8 mi
4:54 AM54 °FLow clouds.10 mph93%29.85 "Hg8 mi
4:01 AM55 °FMostly cloudy.10 mph90%29.88 "Hg8 mi
3:54 AM55 °FMostly cloudy.9 mph90%29.85 "Hg8 mi
2:54 AM57 °FOvercast.8 mph87%29.85 "Hg9 mi
1:54 AM56 °FOvercast.10 mph90%29.86 "Hg8 mi
12:54 AM56 °FOvercast.10 mph90%29.86 "Hg8 mi
11:54 PM
Wed, Jun 29
56 °FOvercast.10 mph90%29.87 "Hg8 mi
10:54 PM56 °FPassing clouds.15 mph90%29.88 "Hg9 mi
9:54 PM57 °FClear.14 mph87%29.88 "Hg9 mi
8:54 PM58 °FSunny.13 mph87%29.88 "Hg9 mi
7:54 PM61 °FSunny.15 mph78%29.88 "Hg10 mi
6:54 PM65 °FSunny.14 mph70%29.86 "Hg10 mi
5:54 PM67 °FSunny.17 mph66%29.86 "Hg10 mi
4:54 PM70 °FSunny.15 mph61%29.88 "Hg10 mi
3:54 PM70 °FSunny.15 mph59%29.89 "Hg10 mi
2:54 PM70 °FSunny.16 mph59%29.91 "Hg10 mi
1:54 PM69 °FSunny.13 mph59%29.92 "Hg10 mi
12:54 PM68 °FSunny.13 mph61%29.94 "Hg10 mi
11:54 AM66 °FSunny.10 mph63%29.95 "Hg10 mi
10:54 AM64 °FPassing clouds.12 mph68%29.95 "Hg10 mi
Weather by CustomWeather, © 2016

See weather overviewHow to use our weather pages